Location: Peach Mountain Observatory
(42.3967°N, 83.9367°W)
Time: 20:11:18
(UTC-05:00)

S-56A Canister/Altair - Pass Details

Date: 25 January 2020
Orbit: 633 x 2500 km, 38.9° (Epoch: 26 February)

Event Time Altitude Azimuth Distance (km) Brightness Sun altitude
Rises 21:31:25 0° 249° (WSW) 3,957 11.8 -42.5°
Reaches altitude 10° 21:34:37 10° 245° (WSW) 2,731 10.7 -43.0°
Enters shadow 21:35:45 15° 242° (WSW) 2,303 10.3 -43.2°
Maximum altitude 21:40:35 52° 171° (S) 949 - -44.1°
Drops below altitude 10° 21:45:07 10° 94° (E) 2,087 - -44.9°
Sets 21:47:17 0° 89° (E) 2,940 - -45.3°
